Back to catalog

FENGYUN 1C DEB

AliveSSO
NORAD 31442·DEBRIS·🇨🇳 China

Launched May 10, 1999 from Taiyuan Satellite Launch Center

Loading…

Next Passes (next 24 hours)

TLE

AgingSource: Space-Track

Epoch: Sep 10, 2026, 00:31 UTC

1 31442U 99025BUE 26253.02163168  .00000516  00000-0  19223-3 0  9996
2 31442  98.5190 340.2132 0077291 287.7374  71.5386 14.34470718 12492

Track FENGYUN 1C DEB in real time with AllMySat

Download on the App Store